OBERSTADN Weather Reports


time (UTC)temp
C
wind
direction
speed
KPH
gust
KPH
rain 1hr
cm
rain 24hr
cm
rain mn
cm
humidity
%
barometer
mb
20260507110210 11 215 9.7 0.0 0.00 0.00 0.15 87 1014.9
20260507103216 11 324 8.0 0.0 0.00 0.00 0.13 84 1015.2
20260507100212 11 275 8.0 0.0 0.00 0.00 0.13 87 1015.0
20260507093211 11 239 11.3 0.0 0.00 0.00 0.10 86 1014.8
20260507090211 11 250 14.5 0.0 0.00 0.00 0.10 85 1014.5
20260507083212 11 250 17.7 0.0 0.00 0.00 0.10 89 1014.3
20260507080211 10 240 20.9 0.0 0.00 0.00 0.10 91 1014.2
20260507073212 9 165 17.7 0.0 0.00 0.00 0.08 92 1014.0
20260507070212 8 218 17.7 0.0 0.00 0.00 0.05 93 1013.7
20260507063211 8 241 16.1 0.0 0.00 0.00 0.05 93 1013.4
20260507060211 8 214 12.9 0.0 0.00 0.00 0.05 93 1013.2
20260507053211 8 235 12.9 0.0 0.00 0.00 0.03 94 1013.0
20260507050213 7 253 11.3 0.0 0.00 0.00 0.00 93 1012.7
20260507043211 6 270 3.2 0.0 0.00 0.00 0.00 93 1012.3
20260507040216 6 348 4.8 0.0 0.00 0.00 0.00 92 1012.0
20260507033211 6 249 4.8 0.0 0.00 0.00 0.00 92 1011.7
20260507030211 6 161 6.4 0.0 0.00 0.00 0.00 92 1011.4
20260507023211 6 190 9.7 0.0 0.00 0.00 0.00 92 1011.4
20260507020211 6 202 12.9 0.0 0.00 0.00 0.00 92 1011.3
20260507013212 6 199 12.9 0.0 0.00 0.00 0.00 92 1011.3
20260507010211 6 233 11.3 0.0 0.00 0.00 0.00 91 1011.0
20260507003209 6 200 4.8 0.0 0.00 0.00 0.00 91 1011.0
20260507000209 7 219 8.0 0.0 0.00 0.00 0.00 91 1010.9
20260506233209 7 215 8.0 0.0 0.00 0.00 0.00 91 1010.9
20260506230209 7 171 9.7 0.0 0.00 0.00 0.00 91 1010.8
20260506223209 7 198 8.0 0.0 0.00 0.00 0.00 91 1010.8
20260506220209 8 246 11.3 0.0 0.00 0.00 0.00 91 1010.6
20260506213209 8 178 8.0 0.0 0.00 0.00 0.66 90 1010.4
20260506210210 8 251 12.9 0.0 0.00 0.00 0.66 90 1010.2
20260506203210 8 206 14.5 0.0 0.00 0.00 0.66 90 1010.4
20260506200210 8 220 19.3 0.0 0.00 0.00 0.66 90 1010.1
20260506193215 8 283 12.9 0.0 0.00 0.00 0.66 89 1009.7
20260506190211 9 162 22.5 0.0 0.00 0.00 0.66 89 1009.2
20260506183209 10 236 8.0 0.0 0.00 0.00 0.66 90 1008.6
20260506180216 10 211 12.9 0.0 0.00 0.00 0.66 90 1008.8
20260506173210 10 180 17.7 0.0 0.00 0.00 0.66 90 1008.5
20260506170215 10 206 16.1 0.0 0.00 0.00 0.66 90 1008.0
20260506163210 10 254 24.1 0.0 0.00 0.00 0.64 89 1007.8
20260506160210 10 247 24.1 0.0 0.00 0.00 0.58 88 1007.7
20260506153210 11 267 37.0 0.0 0.00 0.00 0.41 85 1007.4
20260506150210 15 205 35.4 0.0 0.00 0.00 0.33 77 1006.4
20260506143210 17 265 9.7 0.0 0.00 0.00 0.00 60 1005.4
20260506140210 18 99 9.7 0.0 0.00 0.00 0.00 59 1005.4
20260506133211 17 307 9.7 0.0 0.00 0.00 0.00 59 1005.6
20260506130211 17 257 9.7 0.0 0.00 0.00 0.00 60 1005.7
20260506123210 17 223 11.3 0.0 0.00 0.00 0.00 63 1005.5
20260506120210 17 121 3.2 0.0 0.00 0.00 0.00 64 1005.4
20260506113217 16 47 3.2 0.0 0.00 0.00 0.00 64 1005.7